owner,sensor,date,latitude,longitude,vertical_datum,mass_concentration_of_oxygen_in_sea_water,qcFlag 
DISL,ioos:station:DISL:CATA:1,2015-12-01T00:00:00Z,30.3085,-88.1395,2.372,10.03,1111122 
DISL,ioos:station:DISL:CATA:1,2015-12-01T00:30:00Z,30.3085,-88.1395,2.395,9.62,1111122 
DISL,ioos:station:DISL:CATA:1,2015-12-01T01:00:00Z,30.3085,-88.1395,2.423,9.22,1111122 
DISL,ioos:station:DISL:CATA:1,2015-12-01T01:30:00Z,30.3085,-88.1395,2.45,8.84,1111122 
DISL,ioos:station:DISL:CATA:1,2015-12-01T02:00:00Z,30.3085,-88.1395,2.466,8.29,1111122 
DISL,ioos:station:DISL:CATA:1,2015-12-01T02:30:00Z,30.3085,-88.1395,2.493,8.26,1111122 
DISL,ioos:station:DISL:CATA:1,2015-12-01T03:00:00Z,30.3085,-88.1395,2.519,8.22,1111122 
DISL,ioos:station:DISL:CATA:1,2015-12-01T03:30:00Z,30.3085,-88.1395,2.538,8.14,1111122 
DISL,ioos:station:DISL:CATA:1,2015-12-01T04:00:00Z,30.3085,-88.1395,2.568,7.86,1111122 
DISL,ioos:station:DISL:CATA:1,2015-12-01T04:30:00Z,30.3085,-88.1395,2.579,7.64,1111122 
DISL,ioos:station:DISL:CATA:1,2015-12-01T05:00:00Z,30.3085,-88.1395,2.586,7.38,1111122 
DISL,ioos:station:DISL:CATA:1,2015-12-01T05:30:00Z,30.3085,-88.1395,2.591,7.26,1111122 
DISL,ioos:station:DISL:CATA:1,2015-12-01T06:00:00Z,30.3085,-88.1395,2.598,7.16,1111122 
DISL,ioos:station:DISL:CATA:1,2015-12-01T06:30:00Z,30.3085,-88.1395,2.593,6.99,1111122 
DISL,ioos:station:DISL:CATA:1,2015-12-01T07:00:00Z,30.3085,-88.1395,2.581,6.84,1111122 
DISL,ioos:station:DISL:CATA:1,2015-12-01T07:30:00Z,30.3085,-88.1395,2.573,6.66,1111122 
DISL,ioos:station:DISL:CATA:1,2015-12-01T08:00:00Z,30.3085,-88.1395,2.562,6.49,1111122 
DISL,ioos:station:DISL:CATA:1,2015-12-01T08:30:00Z,30.3085,-88.1395,2.544,6.25,1111122 
DISL,ioos:station:DISL:CATA:1,2015-12-01T09:00:00Z,30.3085,-88.1395,2.533,6.13,1111122 
DISL,ioos:station:DISL:CATA:1,2015-12-01T09:30:00Z,30.3085,-88.1395,2.507,6.16,1111122 
DISL,ioos:station:DISL:CATA:1,2015-12-01T10:00:00Z,30.3085,-88.1395,2.486,5.92,1111122 
DISL,ioos:station:DISL:CATA:1,2015-12-01T10:30:00Z,30.3085,-88.1395,2.46,5.7,1111122 
DISL,ioos:station:DISL:CATA:1,2015-12-01T11:00:00Z,30.3085,-88.1395,2.417,5.61,1111122 
DISL,ioos:station:DISL:CATA:1,2015-12-01T11:30:00Z,30.3085,-88.1395,2.379,5.35,1111122 
DISL,ioos:station:DISL:CATA:1,2015-12-01T12:00:00Z,30.3085,-88.1395,2.356,6.48,1111122 
DISL,ioos:station:DISL:CATA:1,2015-12-01T12:30:00Z,30.3085,-88.1395,2.33,7.29,1111122 
DISL,ioos:station:DISL:CATA:1,2015-12-01T13:00:00Z,30.3085,-88.1395,2.305,8.56,1111122 
DISL,ioos:station:DISL:CATA:1,2015-12-01T13:30:00Z,30.3085,-88.1395,2.263,9.63,1111122 
DISL,ioos:station:DISL:CATA:1,2015-12-01T14:00:00Z,30.3085,-88.1395,2.235,10.62,1111122 
DISL,ioos:station:DISL:CATA:1,2015-12-01T14:30:00Z,30.3085,-88.1395,2.218,11.23,1111122 
DISL,ioos:station:DISL:CATA:1,2015-12-01T15:00:00Z,30.3085,-88.1395,2.204,11.3,1111122 
DISL,ioos:station:DISL:CATA:1,2015-12-01T15:30:00Z,30.3085,-88.1395,2.183,11.75,1111122 
DISL,ioos:station:DISL:CATA:1,2015-12-01T16:00:00Z,30.3085,-88.1395,2.174,11.98,1111122 
DISL,ioos:station:DISL:CATA:1,2015-12-01T16:30:00Z,30.3085,-88.1395,2.164,11.99,1111122 
DISL,ioos:station:DISL:CATA:1,2015-12-01T17:00:00Z,30.3085,-88.1395,2.17,12.11,1111122 
DISL,ioos:station:DISL:CATA:1,2015-12-01T17:30:00Z,30.3085,-88.1395,2.192,12.38,1111122 
DISL,ioos:station:DISL:CATA:1,2015-12-01T18:00:00Z,30.3085,-88.1395,2.216,12.64,1111122 
DISL,ioos:station:DISL:CATA:1,2015-12-01T18:30:00Z,30.3085,-88.1395,2.232,12.39,1111122 
DISL,ioos:station:DISL:CATA:1,2015-12-01T19:00:00Z,30.3085,-88.1395,2.237,12.12,1111122 
DISL,ioos:station:DISL:CATA:1,2015-12-01T19:30:00Z,30.3085,-88.1395,2.238,12.22,1111122 
DISL,ioos:station:DISL:CATA:1,2015-12-01T20:00:00Z,30.3085,-88.1395,2.24,13.07,1111122 
DISL,ioos:station:DISL:CATA:1,2015-12-01T20:30:00Z,30.3085,-88.1395,2.257,13.75,1111122 
DISL,ioos:station:DISL:CATA:1,2015-12-01T21:00:00Z,30.3085,-88.1395,2.282,13.71,1111122 
DISL,ioos:station:DISL:CATA:1,2015-12-01T21:30:00Z,30.3085,-88.1395,2.29,10.75,1111122 
DISL,ioos:station:DISL:CATA:1,2015-12-01T22:00:00Z,30.3085,-88.1395,2.308,10.0,1111122 
DISL,ioos:station:DISL:CATA:1,2015-12-01T22:30:00Z,30.3085,-88.1395,2.334,9.37,1111122 
DISL,ioos:station:DISL:CATA:1,2015-12-01T23:00:00Z,30.3085,-88.1395,2.351,8.63,1111122 
DISL,ioos:station:DISL:CATA:1,2015-12-01T23:30:00Z,30.3085,-88.1395,2.366,8.13,1111122 
DISL,ioos:station:DISL:CATA:1,2015-12-02T00:00:00Z,30.3085,-88.1395,2.396,8.18,1111122 
DISL,ioos:station:DISL:CATA:1,2015-12-02T00:30:00Z,30.3085,-88.1395,2.421,8.32,1111122 
DISL,ioos:station:DISL:CATA:1,2015-12-02T01:00:00Z,30.3085,-88.1395,2.44,8.52,1111122 
DISL,ioos:station:DISL:CATA:1,2015-12-02T01:30:00Z,30.3085,-88.1395,2.462,8.04,1111122 
DISL,ioos:station:DISL:CATA:1,2015-12-02T02:00:00Z,30.3085,-88.1395,2.482,8.41,1111122 
DISL,ioos:station:DISL:CATA:1,2015-12-02T02:30:00Z,30.3085,-88.1395,2.495,8.24,1111122 
DISL,ioos:station:DISL:CATA:1,2015-12-02T03:00:00Z,30.3085,-88.1395,2.505,8.09,1111122 
DISL,ioos:station:DISL:CATA:1,2015-12-02T03:30:00Z,30.3085,-88.1395,2.522,7.64,1111122 
DISL,ioos:station:DISL:CATA:1,2015-12-02T04:00:00Z,30.3085,-88.1395,2.552,7.39,1111122 
DISL,ioos:station:DISL:CATA:1,2015-12-02T04:30:00Z,30.3085,-88.1395,2.554,7.18,1111122 
DISL,ioos:station:DISL:CATA:1,2015-12-02T05:00:00Z,30.3085,-88.1395,2.573,6.94,1111122 
DISL,ioos:station:DISL:CATA:1,2015-12-02T05:30:00Z,30.3085,-88.1395,2.58,6.83,1111122 
DISL,ioos:station:DISL:CATA:1,2015-12-02T06:00:00Z,30.3085,-88.1395,2.591,6.73,1111122 
DISL,ioos:station:DISL:CATA:1,2015-12-02T06:30:00Z,30.3085,-88.1395,2.597,6.63,1111122 
DISL,ioos:station:DISL:CATA:1,2015-12-02T07:00:00Z,30.3085,-88.1395,2.586,6.57,1111122 
DISL,ioos:station:DISL:CATA:1,2015-12-02T07:30:00Z,30.3085,-88.1395,2.572,6.59,1111122 
DISL,ioos:station:DISL:CATA:1,2015-12-02T08:00:00Z,30.3085,-88.1395,2.559,6.4,1111122 
DISL,ioos:station:DISL:CATA:1,2015-12-02T08:30:00Z,30.3085,-88.1395,2.552,6.34,1111122 
DISL,ioos:station:DISL:CATA:1,2015-12-02T09:00:00Z,30.3085,-88.1395,2.536,6.11,1111122 
DISL,ioos:station:DISL:CATA:1,2015-12-02T09:30:00Z,30.3085,-88.1395,2.506,5.64,1111122 
DISL,ioos:station:DISL:CATA:1,2015-12-02T10:00:00Z,30.3085,-88.1395,2.495,5.77,1111122 
DISL,ioos:station:DISL:CATA:1,2015-12-02T10:30:00Z,30.3085,-88.1395,2.468,6.18,1111122 
DISL,ioos:station:DISL:CATA:1,2015-12-02T11:00:00Z,30.3085,-88.1395,2.461,5.93,1111122 
DISL,ioos:station:DISL:CATA:1,2015-12-02T11:30:00Z,30.3085,-88.1395,2.441,5.91,1111122 
DISL,ioos:station:DISL:CATA:1,2015-12-02T12:00:00Z,30.3085,-88.1395,2.423,5.46,1111122 
DISL,ioos:station:DISL:CATA:1,2015-12-02T12:30:00Z,30.3085,-88.1395,2.402,4.99,1111122 
DISL,ioos:station:DISL:CATA:1,2015-12-02T13:00:00Z,30.3085,-88.1395,2.346,6.12,1111122 
DISL,ioos:station:DISL:CATA:1,2015-12-02T13:30:00Z,30.3085,-88.1395,2.306,5.85,1111122 
DISL,ioos:station:DISL:CATA:1,2015-12-02T14:00:00Z,30.3085,-88.1395,2.256,6.94,1111122 
DISL,ioos:station:DISL:CATA:1,2015-12-02T14:30:00Z,30.3085,-88.1395,2.183,7.5,1111122 
DISL,ioos:station:DISL:CATA:1,2015-12-02T15:00:00Z,30.3085,-88.1395,2.174,7.93,1111122 
DISL,ioos:station:DISL:CATA:1,2015-12-02T15:30:00Z,30.3085,-88.1395,2.145,8.16,1111122 
DISL,ioos:station:DISL:CATA:1,2015-12-02T16:00:00Z,30.3085,-88.1395,2.098,8.23,1111122 
DISL,ioos:station:DISL:CATA:1,2015-12-02T16:30:00Z,30.3085,-88.1395,2.079,8.45,1111122 
DISL,ioos:station:DISL:CATA:1,2015-12-02T17:00:00Z,30.3085,-88.1395,2.106,8.46,1111122 
DISL,ioos:station:DISL:CATA:1,2015-12-02T17:30:00Z,30.3085,-88.1395,2.14,8.56,1111122 
DISL,ioos:station:DISL:CATA:1,2015-12-02T18:00:00Z,30.3085,-88.1395,2.198,8.67,1111122 
DISL,ioos:station:DISL:CATA:1,2015-12-02T18:30:00Z,30.3085,-88.1395,2.236,8.19,1111122 
DISL,ioos:station:DISL:CATA:1,2015-12-02T19:00:00Z,30.3085,-88.1395,2.227,8.52,1111122 
DISL,ioos:station:DISL:CATA:1,2015-12-02T19:30:00Z,30.3085,-88.1395,2.234,9.31,1111122 
DISL,ioos:station:DISL:CATA:1,2015-12-02T20:00:00Z,30.3085,-88.1395,2.241,9.78,1111122 
DISL,ioos:station:DISL:CATA:1,2015-12-02T20:30:00Z,30.3085,-88.1395,2.252,9.44,1111122 
DISL,ioos:station:DISL:CATA:1,2015-12-02T21:00:00Z,30.3085,-88.1395,2.262,9.94,1111122 
DISL,ioos:station:DISL:CATA:1,2015-12-02T21:30:00Z,30.3085,-88.1395,2.257,9.47,1111122 
DISL,ioos:station:DISL:CATA:1,2015-12-02T22:00:00Z,30.3085,-88.1395,2.26,9.51,1111122 
DISL,ioos:station:DISL:CATA:1,2015-12-02T22:30:00Z,30.3085,-88.1395,2.274,8.88,1111122 
DISL,ioos:station:DISL:CATA:1,2015-12-02T23:00:00Z,30.3085,-88.1395,2.291,8.73,1111122 
DISL,ioos:station:DISL:CATA:1,2015-12-02T23:30:00Z,30.3085,-88.1395,2.323,8.78,1111122 
DISL,ioos:station:DISL:CATA:1,2015-12-03T00:00:00Z,30.3085,-88.1395,2.327,9.11,1111122 
DISL,ioos:station:DISL:CATA:1,2015-12-03T00:30:00Z,30.3085,-88.1395,2.359,8.98,1111122 
DISL,ioos:station:DISL:CATA:1,2015-12-03T01:00:00Z,30.3085,-88.1395,2.359,8.59,1111122 
DISL,ioos:station:DISL:CATA:1,2015-12-03T01:30:00Z,30.3085,-88.1395,2.359,8.46,1111122 
DISL,ioos:station:DISL:CATA:1,2015-12-03T02:00:00Z,30.3085,-88.1395,2.373,8.54,1111122 
DISL,ioos:station:DISL:CATA:1,2015-12-03T02:30:00Z,30.3085,-88.1395,2.362,8.13,1111122 
DISL,ioos:station:DISL:CATA:1,2015-12-03T03:00:00Z,30.3085,-88.1395,2.371,8.05,1111122 
DISL,ioos:station:DISL:CATA:1,2015-12-03T03:30:00Z,30.3085,-88.1395,2.376,7.69,1111122 
DISL,ioos:station:DISL:CATA:1,2015-12-03T04:00:00Z,30.3085,-88.1395,2.378,7.61,1111122 
DISL,ioos:station:DISL:CATA:1,2015-12-03T04:30:00Z,30.3085,-88.1395,2.378,7.14,1111122 
DISL,ioos:station:DISL:CATA:1,2015-12-03T05:00:00Z,30.3085,-88.1395,2.363,6.42,1111122 
DISL,ioos:station:DISL:CATA:1,2015-12-03T05:30:00Z,30.3085,-88.1395,2.357,6.7,1111122 
DISL,ioos:station:DISL:CATA:1,2015-12-03T06:00:00Z,30.3085,-88.1395,2.358,6.56,1111122 
DISL,ioos:station:DISL:CATA:1,2015-12-03T06:30:00Z,30.3085,-88.1395,2.323,6.28,1111122 
DISL,ioos:station:DISL:CATA:1,2015-12-03T07:00:00Z,30.3085,-88.1395,2.327,6.42,1111122 
DISL,ioos:station:DISL:CATA:1,2015-12-03T07:30:00Z,30.3085,-88.1395,2.325,6.57,1111122 
DISL,ioos:station:DISL:CATA:1,2015-12-03T08:00:00Z,30.3085,-88.1395,2.322,6.51,1111122 
DISL,ioos:station:DISL:CATA:1,2015-12-03T08:30:00Z,30.3085,-88.1395,2.316,6.25,1111122 
DISL,ioos:station:DISL:CATA:1,2015-12-03T09:00:00Z,30.3085,-88.1395,2.314,6.42,1111122 
DISL,ioos:station:DISL:CATA:1,2015-12-03T09:30:00Z,30.3085,-88.1395,2.308,6.19,1111122 
DISL,ioos:station:DISL:CATA:1,2015-12-03T10:00:00Z,30.3085,-88.1395,2.281,7.22,1111122 
DISL,ioos:station:DISL:CATA:1,2015-12-03T10:30:00Z,30.3085,-88.1395,2.247,8.01,1111122 
DISL,ioos:station:DISL:CATA:1,2015-12-03T11:00:00Z,30.3085,-88.1395,2.195,8.45,1111122 
DISL,ioos:station:DISL:CATA:1,2015-12-03T11:30:00Z,30.3085,-88.1395,2.196,8.39,1111122 
DISL,ioos:station:DISL:CATA:1,2015-12-03T12:00:00Z,30.3085,-88.1395,2.19,8.43,1111122 
DISL,ioos:station:DISL:CATA:1,2015-12-03T12:30:00Z,30.3085,-88.1395,2.182,8.43,1111122 
DISL,ioos:station:DISL:CATA:1,2015-12-03T13:00:00Z,30.3085,-88.1395,2.168,8.4,1111122 
DISL,ioos:station:DISL:CATA:1,2015-12-03T13:30:00Z,30.3085,-88.1395,2.167,8.4,1111122 
DISL,ioos:station:DISL:CATA:1,2015-12-03T14:00:00Z,30.3085,-88.1395,2.172,8.44,1111122 
DISL,ioos:station:DISL:CATA:1,2015-12-03T14:30:00Z,30.3085,-88.1395,2.161,8.5,1111122 
DISL,ioos:station:DISL:CATA:1,2015-12-03T15:00:00Z,30.3085,-88.1395,2.143,8.62,1111122 
DISL,ioos:station:DISL:CATA:1,2015-12-03T15:30:00Z,30.3085,-88.1395,2.122,8.58,1111122 
DISL,ioos:station:DISL:CATA:1,2015-12-03T16:00:00Z,30.3085,-88.1395,2.119,8.62,1111122 
DISL,ioos:station:DISL:CATA:1,2015-12-03T16:30:00Z,30.3085,-88.1395,2.124,8.61,1111122 
DISL,ioos:station:DISL:CATA:1,2015-12-03T17:00:00Z,30.3085,-88.1395,2.109,8.66,1111122 
DISL,ioos:station:DISL:CATA:1,2015-12-03T17:30:00Z,30.3085,-88.1395,2.099,8.67,1111122 
DISL,ioos:station:DISL:CATA:1,2015-12-03T18:00:00Z,30.3085,-88.1395,2.107,8.69,1111122 
DISL,ioos:station:DISL:CATA:1,2015-12-03T18:30:00Z,30.3085,-88.1395,2.11,8.78,1111122 
DISL,ioos:station:DISL:CATA:1,2015-12-03T19:00:00Z,30.3085,-88.1395,2.108,8.77,1111122 
DISL,ioos:station:DISL:CATA:1,2015-12-03T19:30:00Z,30.3085,-88.1395,2.143,8.82,1111122 
DISL,ioos:station:DISL:CATA:1,2015-12-03T20:00:00Z,30.3085,-88.1395,2.156,8.7,1111122 
DISL,ioos:station:DISL:CATA:1,2015-12-03T20:30:00Z,30.3085,-88.1395,2.164,8.5,1111122 
DISL,ioos:station:DISL:CATA:1,2015-12-03T21:00:00Z,30.3085,-88.1395,2.169,8.59,1111122 
DISL,ioos:station:DISL:CATA:1,2015-12-03T21:30:00Z,30.3085,-88.1395,2.171,8.91,1111122 
DISL,ioos:station:DISL:CATA:1,2015-12-03T22:00:00Z,30.3085,-88.1395,2.164,9.47,1111122 
DISL,ioos:station:DISL:CATA:1,2015-12-03T22:30:00Z,30.3085,-88.1395,2.159,9.6,1111122 
DISL,ioos:station:DISL:CATA:1,2015-12-03T23:00:00Z,30.3085,-88.1395,2.163,9.38,1111122 
DISL,ioos:station:DISL:CATA:1,2015-12-03T23:30:00Z,30.3085,-88.1395,2.155,9.44,1111122 
DISL,ioos:station:DISL:CATA:1,2015-12-04T00:00:00Z,30.3085,-88.1395,2.178,9.16,1111122 
DISL,ioos:station:DISL:CATA:1,2015-12-04T00:30:00Z,30.3085,-88.1395,2.2,8.96,1111122 
DISL,ioos:station:DISL:CATA:1,2015-12-04T01:00:00Z,30.3085,-88.1395,2.202,8.74,1111122 
DISL,ioos:station:DISL:CATA:1,2015-12-04T01:30:00Z,30.3085,-88.1395,2.208,8.95,1111122 
DISL,ioos:station:DISL:CATA:1,2015-12-04T02:00:00Z,30.3085,-88.1395,2.188,9.02,1111122 
DISL,ioos:station:DISL:CATA:1,2015-12-04T02:30:00Z,30.3085,-88.1395,2.168,8.98,1111122 
DISL,ioos:station:DISL:CATA:1,2015-12-04T03:00:00Z,30.3085,-88.1395,2.163,8.94,1111122 
DISL,ioos:station:DISL:CATA:1,2015-12-04T03:30:00Z,30.3085,-88.1395,2.134,8.93,1111122 
DISL,ioos:station:DISL:CATA:1,2015-12-04T04:00:00Z,30.3085,-88.1395,2.12,8.95,1111122 
DISL,ioos:station:DISL:CATA:1,2015-12-04T04:30:00Z,30.3085,-88.1395,2.114,8.99,1111122 
DISL,ioos:station:DISL:CATA:1,2015-12-04T05:00:00Z,30.3085,-88.1395,2.114,8.92,1111122 
DISL,ioos:station:DISL:CATA:1,2015-12-04T05:30:00Z,30.3085,-88.1395,2.107,8.85,1111122 
DISL,ioos:station:DISL:CATA:1,2015-12-04T06:00:00Z,30.3085,-88.1395,2.134,8.78,1111122 
DISL,ioos:station:DISL:CATA:1,2015-12-04T06:30:00Z,30.3085,-88.1395,2.156,8.71,1111122 
DISL,ioos:station:DISL:CATA:1,2015-12-04T07:00:00Z,30.3085,-88.1395,2.167,8.74,1111122 
DISL,ioos:station:DISL:CATA:1,2015-12-04T07:30:00Z,30.3085,-88.1395,2.161,8.69,1111122 
DISL,ioos:station:DISL:CATA:1,2015-12-04T08:00:00Z,30.3085,-88.1395,2.17,8.61,1111122 
DISL,ioos:station:DISL:CATA:1,2015-12-04T08:30:00Z,30.3085,-88.1395,2.176,8.62,1111122 
DISL,ioos:station:DISL:CATA:1,2015-12-04T09:00:00Z,30.3085,-88.1395,2.166,8.65,1111122 
DISL,ioos:station:DISL:CATA:1,2015-12-04T09:30:00Z,30.3085,-88.1395,2.147,8.57,1111122 
DISL,ioos:station:DISL:CATA:1,2015-12-04T10:00:00Z,30.3085,-88.1395,2.154,8.51,1111122 
DISL,ioos:station:DISL:CATA:1,2015-12-04T10:30:00Z,30.3085,-88.1395,2.134,8.32,1111122 
DISL,ioos:station:DISL:CATA:1,2015-12-04T11:00:00Z,30.3085,-88.1395,2.124,8.46,1111122 
DISL,ioos:station:DISL:CATA:1,2015-12-04T11:30:00Z,30.3085,-88.1395,2.109,8.56,1111122 
DISL,ioos:station:DISL:CATA:1,2015-12-04T12:00:00Z,30.3085,-88.1395,2.095,8.84,1111122 
DISL,ioos:station:DISL:CATA:1,2015-12-04T12:30:00Z,30.3085,-88.1395,2.085,8.88,1111122 
DISL,ioos:station:DISL:CATA:1,2015-12-04T13:00:00Z,30.3085,-88.1395,2.065,8.94,1111122 
DISL,ioos:station:DISL:CATA:1,2015-12-04T13:30:00Z,30.3085,-88.1395,2.052,9.02,1111122 
DISL,ioos:station:DISL:CATA:1,2015-12-04T14:30:00Z,30.3085,-88.1395,2.015,9.13,1111122 
DISL,ioos:station:DISL:CATA:1,2015-12-04T15:00:00Z,30.3085,-88.1395,2.013,9.31,1111122 
DISL,ioos:station:DISL:CATA:1,2015-12-04T15:30:00Z,30.3085,-88.1395,2.016,9.4,1111122 
DISL,ioos:station:DISL:CATA:1,2015-12-04T16:00:00Z,30.3085,-88.1395,2.019,9.36,1111122 
DISL,ioos:station:DISL:CATA:1,2015-12-04T16:30:00Z,30.3085,-88.1395,2.029,9.25,1111122 
DISL,ioos:station:DISL:CATA:1,2015-12-04T17:00:00Z,30.3085,-88.1395,2.048,9.21,1111122 
DISL,ioos:station:DISL:CATA:1,2015-12-04T17:30:00Z,30.3085,-88.1395,2.063,9.17,1111122 
DISL,ioos:station:DISL:CATA:1,2015-12-04T18:00:00Z,30.3085,-88.1395,2.081,9.09,1111122 
DISL,ioos:station:DISL:CATA:1,2015-12-04T18:30:00Z,30.3085,-88.1395,2.092,8.92,1111122 
DISL,ioos:station:DISL:CATA:1,2015-12-04T19:00:00Z,30.3085,-88.1395,2.103,9.12,1111122 
DISL,ioos:station:DISL:CATA:1,2015-12-04T19:30:00Z,30.3085,-88.1395,2.118,8.89,1111122 
DISL,ioos:station:DISL:CATA:1,2015-12-04T20:00:00Z,30.3085,-88.1395,2.135,9.16,1111122 
DISL,ioos:station:DISL:CATA:1,2015-12-04T20:30:00Z,30.3085,-88.1395,2.141,10.25,1111122 
DISL,ioos:station:DISL:CATA:1,2015-12-04T21:00:00Z,30.3085,-88.1395,2.145,10.07,1111122 
DISL,ioos:station:DISL:CATA:1,2015-12-04T21:30:00Z,30.3085,-88.1395,2.163,10.16,1111122 
DISL,ioos:station:DISL:CATA:1,2015-12-04T22:00:00Z,30.3085,-88.1395,2.166,10.97,1111122 
DISL,ioos:station:DISL:CATA:1,2015-12-04T22:30:00Z,30.3085,-88.1395,2.177,11.04,1111122 
DISL,ioos:station:DISL:CATA:1,2015-12-04T23:00:00Z,30.3085,-88.1395,2.18,11.03,1111122 
DISL,ioos:station:DISL:CATA:1,2015-12-04T23:30:00Z,30.3085,-88.1395,2.182,10.4,1111122 
DISL,ioos:station:DISL:CATA:1,2015-12-05T00:00:00Z,30.3085,-88.1395,2.2,9.96,1111122 
DISL,ioos:station:DISL:CATA:1,2015-12-05T00:30:00Z,30.3085,-88.1395,2.203,9.93,1111122 
DISL,ioos:station:DISL:CATA:1,2015-12-05T01:00:00Z,30.3085,-88.1395,2.199,9.98,1111122 
DISL,ioos:station:DISL:CATA:1,2015-12-05T01:30:00Z,30.3085,-88.1395,2.198,9.96,1111122 
DISL,ioos:station:DISL:CATA:1,2015-12-05T02:00:00Z,30.3085,-88.1395,2.195,10.09,1111122 
DISL,ioos:station:DISL:CATA:1,2015-12-05T02:30:00Z,30.3085,-88.1395,2.195,9.84,1111122 
DISL,ioos:station:DISL:CATA:1,2015-12-05T03:00:00Z,30.3085,-88.1395,2.187,9.58,1111122 
DISL,ioos:station:DISL:CATA:1,2015-12-05T03:30:00Z,30.3085,-88.1395,2.182,9.59,1111122 
DISL,ioos:station:DISL:CATA:1,2015-12-05T04:00:00Z,30.3085,-88.1395,2.172,9.59,1111122 
DISL,ioos:station:DISL:CATA:1,2015-12-05T04:30:00Z,30.3085,-88.1395,2.165,9.6,1111122 
DISL,ioos:station:DISL:CATA:1,2015-12-05T05:00:00Z,30.3085,-88.1395,2.153,9.56,1111122 
DISL,ioos:station:DISL:CATA:1,2015-12-05T05:30:00Z,30.3085,-88.1395,2.151,9.56,1111122 
DISL,ioos:station:DISL:CATA:1,2015-12-05T06:00:00Z,30.3085,-88.1395,2.141,9.6,1111122 
DISL,ioos:station:DISL:CATA:1,2015-12-05T06:30:00Z,30.3085,-88.1395,2.14,9.64,1111122 
DISL,ioos:station:DISL:CATA:1,2015-12-05T07:00:00Z,30.3085,-88.1395,2.128,9.64,1111122 
DISL,ioos:station:DISL:CATA:1,2015-12-05T07:30:00Z,30.3085,-88.1395,2.124,9.58,1111122 
DISL,ioos:station:DISL:CATA:1,2015-12-05T08:00:00Z,30.3085,-88.1395,2.125,9.54,1111122 
DISL,ioos:station:DISL:CATA:1,2015-12-05T08:30:00Z,30.3085,-88.1395,2.129,9.48,1111122 
DISL,ioos:station:DISL:CATA:1,2015-12-05T09:00:00Z,30.3085,-88.1395,2.122,9.44,1111122 
DISL,ioos:station:DISL:CATA:1,2015-12-05T09:30:00Z,30.3085,-88.1395,2.12,9.4,1111122 
DISL,ioos:station:DISL:CATA:1,2015-12-05T10:00:00Z,30.3085,-88.1395,2.105,9.38,1111122 
DISL,ioos:station:DISL:CATA:1,2015-12-05T10:30:00Z,30.3085,-88.1395,2.082,9.35,1111122 
DISL,ioos:station:DISL:CATA:1,2015-12-05T11:00:00Z,30.3085,-88.1395,2.064,9.35,1111122 
DISL,ioos:station:DISL:CATA:1,2015-12-05T11:30:00Z,30.3085,-88.1395,2.051,9.37,1111122 
DISL,ioos:station:DISL:CATA:1,2015-12-05T12:00:00Z,30.3085,-88.1395,2.031,9.34,1111122 
DISL,ioos:station:DISL:CATA:1,2015-12-05T12:30:00Z,30.3085,-88.1395,2.019,9.34,1111122 
DISL,ioos:station:DISL:CATA:1,2015-12-05T13:00:00Z,30.3085,-88.1395,2.013,9.32,1111122 
DISL,ioos:station:DISL:CATA:1,2015-12-05T13:30:00Z,30.3085,-88.1395,2.013,9.35,1111122 
DISL,ioos:station:DISL:CATA:1,2015-12-05T14:00:00Z,30.3085,-88.1395,2.009,9.35,1111122 
DISL,ioos:station:DISL:CATA:1,2015-12-05T14:30:00Z,30.3085,-88.1395,2.015,9.36,1111122 
DISL,ioos:station:DISL:CATA:1,2015-12-05T15:00:00Z,30.3085,-88.1395,2.018,9.36,1111122 
DISL,ioos:station:DISL:CATA:1,2015-12-05T15:30:00Z,30.3085,-88.1395,2.02,9.37,1111122 
DISL,ioos:station:DISL:CATA:1,2015-12-05T16:00:00Z,30.3085,-88.1395,2.018,9.33,1111122 
DISL,ioos:station:DISL:CATA:1,2015-12-05T16:30:00Z,30.3085,-88.1395,2.021,9.35,1111122 
DISL,ioos:station:DISL:CATA:1,2015-12-05T17:00:00Z,30.3085,-88.1395,2.017,9.38,1111122 
DISL,ioos:station:DISL:CATA:1,2015-12-05T17:30:00Z,30.3085,-88.1395,2.022,9.4,1111122 
DISL,ioos:station:DISL:CATA:1,2015-12-05T18:00:00Z,30.3085,-88.1395,2.034,9.42,1111122 
DISL,ioos:station:DISL:CATA:1,2015-12-05T18:30:00Z,30.3085,-88.1395,2.061,9.45,1111122 
DISL,ioos:station:DISL:CATA:1,2015-12-05T19:00:00Z,30.3085,-88.1395,2.08,9.44,1111122 
DISL,ioos:station:DISL:CATA:1,2015-12-05T19:30:00Z,30.3085,-88.1395,2.083,9.33,1111122 
DISL,ioos:station:DISL:CATA:1,2015-12-05T20:00:00Z,30.3085,-88.1395,2.105,9.67,1111122 
DISL,ioos:station:DISL:CATA:1,2015-12-05T20:30:00Z,30.3085,-88.1395,2.126,10.07,1111122 
DISL,ioos:station:DISL:CATA:1,2015-12-05T21:00:00Z,30.3085,-88.1395,2.132,10.54,1111122 
DISL,ioos:station:DISL:CATA:1,2015-12-05T21:30:00Z,30.3085,-88.1395,2.144,10.66,1111122 
DISL,ioos:station:DISL:CATA:1,2015-12-05T22:00:00Z,30.3085,-88.1395,2.165,10.63,1111122 
DISL,ioos:station:DISL:CATA:1,2015-12-05T22:30:00Z,30.3085,-88.1395,2.181,10.61,1111122 
DISL,ioos:station:DISL:CATA:1,2015-12-05T23:00:00Z,30.3085,-88.1395,2.195,10.57,1111122 
DISL,ioos:station:DISL:CATA:1,2015-12-05T23:30:00Z,30.3085,-88.1395,2.213,10.52,1111122 
DISL,ioos:station:DISL:CATA:1,2015-12-06T00:00:00Z,30.3085,-88.1395,2.227,10.54,1111122 
DISL,ioos:station:DISL:CATA:1,2015-12-06T00:30:00Z,30.3085,-88.1395,2.239,10.48,1111122 
DISL,ioos:station:DISL:CATA:1,2015-12-06T01:00:00Z,30.3085,-88.1395,2.255,10.44,1111122 
DISL,ioos:station:DISL:CATA:1,2015-12-06T01:30:00Z,30.3085,-88.1395,2.268,10.43,1111122 
DISL,ioos:station:DISL:CATA:1,2015-12-06T02:00:00Z,30.3085,-88.1395,2.265,10.37,1111122 
DISL,ioos:station:DISL:CATA:1,2015-12-06T02:30:00Z,30.3085,-88.1395,2.279,10.3,1111122 
DISL,ioos:station:DISL:CATA:1,2015-12-06T03:00:00Z,30.3085,-88.1395,2.282,9.71,1111122 
DISL,ioos:station:DISL:CATA:1,2015-12-06T03:30:00Z,30.3085,-88.1395,2.272,9.38,1111122 
DISL,ioos:station:DISL:CATA:1,2015-12-06T04:00:00Z,30.3085,-88.1395,2.256,9.69,1111122 
DISL,ioos:station:DISL:CATA:1,2015-12-06T04:30:00Z,30.3085,-88.1395,2.244,9.61,1111122 
DISL,ioos:station:DISL:CATA:1,2015-12-06T05:00:00Z,30.3085,-88.1395,2.229,9.8,1111122 
DISL,ioos:station:DISL:CATA:1,2015-12-06T05:30:00Z,30.3085,-88.1395,2.206,10.04,1111122 
DISL,ioos:station:DISL:CATA:1,2015-12-06T06:00:00Z,30.3085,-88.1395,2.178,10.07,1111122 
DISL,ioos:station:DISL:CATA:1,2015-12-06T06:30:00Z,30.3085,-88.1395,2.146,10.14,1111122 
DISL,ioos:station:DISL:CATA:1,2015-12-06T07:00:00Z,30.3085,-88.1395,2.115,9.91,1111122 
DISL,ioos:station:DISL:CATA:1,2015-12-06T07:30:00Z,30.3085,-88.1395,2.101,9.73,1111122 
DISL,ioos:station:DISL:CATA:1,2015-12-06T08:00:00Z,30.3085,-88.1395,2.086,9.45,1111122 
DISL,ioos:station:DISL:CATA:1,2015-12-06T08:30:00Z,30.3085,-88.1395,2.087,9.38,1111122 
DISL,ioos:station:DISL:CATA:1,2015-12-06T09:00:00Z,30.3085,-88.1395,2.098,9.35,1111122 
DISL,ioos:station:DISL:CATA:1,2015-12-06T09:30:00Z,30.3085,-88.1395,2.097,9.34,1111122 
DISL,ioos:station:DISL:CATA:1,2015-12-06T10:00:00Z,30.3085,-88.1395,2.09,9.34,1111122 
DISL,ioos:station:DISL:CATA:1,2015-12-06T10:30:00Z,30.3085,-88.1395,2.08,9.36,1111122 
DISL,ioos:station:DISL:CATA:1,2015-12-06T11:00:00Z,30.3085,-88.1395,2.063,9.36,1111122 
DISL,ioos:station:DISL:CATA:1,2015-12-06T11:30:00Z,30.3085,-88.1395,2.048,9.34,1111122 
DISL,ioos:station:DISL:CATA:1,2015-12-06T12:00:00Z,30.3085,-88.1395,2.035,9.32,1111122 
DISL,ioos:station:DISL:CATA:1,2015-12-06T12:30:00Z,30.3085,-88.1395,2.038,9.31,1111122 
DISL,ioos:station:DISL:CATA:1,2015-12-06T13:00:00Z,30.3085,-88.1395,2.026,9.28,1111122 
DISL,ioos:station:DISL:CATA:1,2015-12-06T13:30:00Z,30.3085,-88.1395,2.03,9.29,1111122 
DISL,ioos:station:DISL:CATA:1,2015-12-06T14:00:00Z,30.3085,-88.1395,2.034,9.35,1111122 
DISL,ioos:station:DISL:CATA:1,2015-12-06T14:30:00Z,30.3085,-88.1395,2.032,9.31,1111122 
DISL,ioos:station:DISL:CATA:1,2015-12-06T15:00:00Z,30.3085,-88.1395,2.024,9.34,1111122 
DISL,ioos:station:DISL:CATA:1,2015-12-06T15:30:00Z,30.3085,-88.1395,2.044,9.37,1111122 